Location: Chochol
(49.7771°N, 14.9780°E)
Time: 17:49:01
(UTC+00:00)

CZ-4C R/B - Visible Passes

Search period start: 16 June 2021 00:00
Search period end: 26 June 2021 00:00
Orbit: 609 x 1392 km, 63.4° (Epoch: 15 June)

Date Brightness Start Highest point End Pass type
(mag) Time Alt. Az. Time Alt. Az. Time Alt. Az.
18 Jun 3.9 01:53:47 10° SSE 01:57:33 22° ESE 02:01:51 10° ENE visible
20 Jun 4.1 01:12:53 10° SSE 01:16:11 18° ESE 01:19:52 10° ENE visible
21 Jun 3.0 01:44:23 10° S 01:48:55 40° ESE 01:54:21 10° NE visible
22 Jun 4.1 00:32:12 10° SE 00:34:51 14° ESE 00:37:43 10° ENE visible
23 Jun 3.2 01:03:33 12° S 01:07:29 33° ESE 01:12:35 10° NE visible
23 Jun 4.2 23:51:59 10° ESE 23:53:31 11° ESE 23:55:06 10° E visible
24 Jun 2.3 01:35:56 12° SSW 01:40:31 69° SE 01:46:31 10° NE visible
25 Jun 3.4 00:23:07 16° SSE 00:26:05 27° ESE 00:30:46 10° ENE visible
